Regional Weather Roundup
Issued by NWS Midland/Odessa, TX

Skip options and go directly to product.
Home | Oldest Version | Next Version | Current Version | All | Text Only | Save Text | Print | Product List | Glossary On

Skip product version selection by date and time.   
351
ASUS44 KMAF 251101
RWRMAF
MIDLAND AREA WEATHER ROUNDUP
NATIONAL WEATHER SERVICE MIDLAND TX
500 AM CST SAT FEB 25 2017

...IN SOUTHWEST TEXAS AND SOUTHEAST NEW MEXICO...

CITY           SKY/WX    TMP DP  RH WIND       PRES   REMARKS
ALPINE         CLEAR     34   3  26 W6        30.13F WCI  29
ANDREWS        FAIR      31  20  63 E7        30.13R WCI  24
ARTESIA        CLEAR     32  12  43 SW6       30.11R WCI  26
BIG SPRING     CLEAR     34  22  61 NE7       30.15R WCI  28
CARLSBAD       CLEAR     36  19  50 NE5       30.10R WCI  32
DRYDEN           N/A     46  23  40 N13       30.05R
FORT STOCKTON  CLEAR     36   4  26 N6        30.07R WCI  31
GUAD PASS      CLEAR     41   4  21 S5          N/A  WCI  38
HOBBS          CLEAR     30  16  55 NE7       30.12R WCI  23
MARFA          CLOUDY    26   4  38 N3        30.09S
MIDLAND AIRPK  CLEAR     37  23  57 E9        30.12S WCI  30
MIDLAND INTL   CLEAR     37  22  54 E14       30.11R WCI  28
ODESSA         CLEAR     37  21  52 E12       30.11R WCI  29
PECOS          CLEAR     33  11  39 NW6       30.09S WCI  28
PRESIDIO       FAIR      47   4  16 N5        30.05S
SEMINOLE       CLEAR     29  19  67 NE6       30.14R WCI  22
SNYDER         CLEAR     32  21  64 NE8       30.15R WCI  25
WINK           CLEAR     34  21  59 N8        30.09R WCI  27
$$
...OTHER STATIONS IN TEXAS...

CITY           SKY/WX    TMP DP  RH WIND       PRES   REMARKS
ABILENE        CLEAR     32  24  72 N6        30.16S WCI  26
AMARILLO       CLEAR     20  15  81 CALM      30.13R
AUSTIN         CLEAR     48  30  49 N20G30    30.10R
BROWNSVILLE    CLEAR     67  56  67 NE10      29.94R
CORPUS CHRISTI CLEAR     56  41  57 NE16      30.01R
DALLAS FTW     CLEAR     38  25  59 N12       30.14R WCI  30
DEL RIO        CLEAR     46  34  62 S3        30.05R
EL PASO        CLEAR     47   3  16 SW12      30.06S
HOUSTON INT    CLEAR     50  35  56 N8        30.06R
LUBBOCK        CLEAR     27  19  72 NE3       30.12R
SAN ANGELO     CLEAR     38  28  67 NE12      30.14R WCI  30
SAN ANTONIO    CLEAR     49  31  49 N10       30.07R
WACO           CLEAR     38  29  70 N7        30.15R WCI  33
WICHITA FALLS  NOT AVBL
$$
...OTHER LOCATIONS IN NEW MEXICO...

CITY           SKY/WX    TMP DP  RH WIND       PRES   REMARKS
ALAMAGORDO     CLEAR     32   7  34 CALM      30.06S
ALBUQUERQUE    CLEAR     26   0  32 CALM      30.07F
CANNON AFB     NOT AVBL
CLOVIS         CLEAR     19  10  68 CALM      30.10S
HOLLOMAN AFB   CLEAR     31   9  39 CALM      30.09S
ROSWELL        CLEAR     31   7  36 CALM        N/A
RUIDOSO        CLEAR     28   0  29 NW6       30.07S WCI  22
SANTA FE       CLEAR     16   1  51 VRB3      30.03S
TRUTH OR CONSE CLEAR     32  13  45 W5        30.05F WCI  27
TUCUMCARI      CLEAR     17  11  77 N6        30.10S WCI   9
$$

  • National Weather Service
  • Southern Region Headquarters
  • 819 Taylor Street, Room 10A06
  • Fort Worth, TX 76102
  • Page Author: NWS Fort Worth
  • Web Master: SR-SRH.Webmaster@noaa.gov
  •  
  • Page last modified: 30-Sep-2016 6:36 PM UTC
USA.gov is the U.S. government's official web portal to all federal, state and local government web resources and services.